Location: Mascot Post Office (historical)
(40.2645°N, 99.5462°W)
Time: 17:05:50
(UTC+00:00)

Meteor 1-26 Rocket - Pass Details

Date: 14 July 2020
Orbit: 811 x 924 km, 81.3° (Epoch: 05 August)

Event Time Altitude Azimuth Distance (km) Brightness Sun altitude
Rises 05:20:27 0° 352° (N) 3,553 8.7 -25.1°
Reaches altitude 10° 05:22:58 10° 354° (N) 2,596 7.7 -25.3°
Maximum altitude 05:28:54 76° 80° (E) 917 4.2 -25.7°
Enters shadow 05:29:36 67° 135° (SE) 958 4.2 -25.7°
